Погода в Еськах

Россия / Тверская область     57°56′06″N   36°22′36″E
темп.,
°C
ветер,
м/с
пор.,
м/с
влажн.,
%
обл.,
%
осадки,
мм/ч
давл.,
гПа
погр.,
м
9 декабря, чт
чт900:00−20ссз1110039 0.0 102713
03:00−20ссз1110043 0.0 102716
06:00−20ссз1110051 0.0 102710
09:00−20ссз1110042 0.0 102810
12:00−14ссз129521 0.0 102963
15:00−15ссз119840 0.0 10299
18:00−19ссз119948 0.0 10319
21:00−20св1110032 0.0 103210
10 декабря, пт
пт1000:00−21в1110032 0.0 10339
03:00−21вюв1110033 0.0 10349
06:00−21вюв1110043 0.0 103411
09:00−19вюв249950 0.0 103558
12:00−14вюв39915 0.0 1035195
15:00−14вюв27935 0.0 1035151
18:00−14вюв411925 0.0 1035206
21:00−14вюв311915 0.0 1035221
11 декабря, сб
сб1100:00−14вюв413915 0.0 1035251
03:00−14юв4129057 0.0 1035249
06:00−14юв4128895 0.0 1035244
09:00−13юв41386100 0.0 1035278
12:00−12юв4138460 0.0 1035314
15:00−12юв4118626 0.0 1035238
18:00−13юв4118928 0.0 1035204
21:00−13юв4118934 0.0 1035203
12 декабря, вс
вс1200:00−14юв3119077 0.0 1035189
03:00−12юв4118910 0.0 1034221
06:00−11юв310915 0.0 1033214
09:00−10юв4119371 0.0 1033228
12:00−6ююв3992100 0.0 1033247
15:00−4ююв3992100 0.0 1033272
18:00−3ююв3992100 0.0 1033278
21:00−3ююв3991100 0.0 1032260
13 декабря, пн
пн1300:00−5ююв3893100 0.0 1032212
03:00−6ююв3793100 0.0 1032174
06:00−6ююв2793100 0.0 1031151
09:00−6ююв2693100 0.0 1031144
12:00−4ююв2690100 0.0 1030192
15:00−4ююв2393100 0.0 102971
18:00−6ююв239599 0.0 103050
21:00−8ююв119792 0.0 102912